Year,Month,Day,Hour,Minute,Value (Times are PST for temperature in C)
2015,07,02,00,00,14.00
2015,07,02,00,01,14.10
2015,07,02,00,02,14.10
2015,07,02,00,03,14.10
2015,07,02,00,04,14.10
2015,07,02,00,05,14.10
2015,07,02,00,06,14.10
2015,07,02,00,07,14.10
2015,07,02,00,08,14.10
2015,07,02,00,09,14.10
2015,07,02,00,10,14.10
2015,07,02,00,11,14.10
2015,07,02,00,12,14.10
2015,07,02,00,17,14.20
2015,07,02,00,18,14.20
2015,07,02,00,19,14.20
2015,07,02,00,20,14.20
2015,07,02,00,21,14.20
2015,07,02,00,22,14.20
2015,07,02,00,23,14.20
2015,07,02,00,24,14.20
2015,07,02,00,25,14.20
2015,07,02,00,26,14.30
2015,07,02,00,27,14.40
2015,07,02,00,28,14.50
2015,07,02,00,29,14.60
2015,07,02,00,30,14.60
2015,07,02,00,31,14.70
2015,07,02,00,32,14.80
2015,07,02,00,33,14.80
2015,07,02,00,34,14.80
2015,07,02,00,35,14.90
2015,07,02,00,36,14.90
2015,07,02,00,37,15.00
2015,07,02,00,38,15.00
2015,07,02,00,39,15.00
2015,07,02,00,40,15.10
2015,07,02,00,41,15.10
2015,07,02,00,42,15.10
2015,07,02,00,43,15.10
2015,07,02,00,44,15.00
2015,07,02,00,45,14.90
2015,07,02,00,46,15.00
2015,07,02,00,47,15.00
2015,07,02,00,48,15.10
2015,07,02,00,49,15.10
2015,07,02,00,50,15.20
2015,07,02,00,51,15.30
2015,07,02,00,52,15.40
2015,07,02,00,53,15.40
2015,07,02,00,54,15.50
2015,07,02,00,55,15.60
2015,07,02,00,56,15.60
2015,07,02,00,57,15.60
2015,07,02,00,58,15.50
2015,07,02,00,59,15.50
2015,07,02,01,00,15.40
2015,07,02,01,01,15.30
2015,07,02,01,02,15.20
2015,07,02,01,03,15.20
2015,07,02,01,04,15.20
2015,07,02,01,05,15.20
2015,07,02,01,06,15.20
2015,07,02,01,07,15.30
2015,07,02,01,08,15.30
2015,07,02,01,09,15.30
2015,07,02,01,10,15.30
2015,07,02,01,11,15.30
2015,07,02,01,12,15.30
2015,07,02,01,13,15.30
2015,07,02,01,14,15.30
2015,07,02,01,15,15.30
2015,07,02,01,16,15.30
2015,07,02,01,17,15.20
2015,07,02,01,18,15.20
2015,07,02,01,19,15.20
2015,07,02,01,20,15.10
2015,07,02,01,21,15.10
2015,07,02,01,22,15.10
2015,07,02,01,23,15.00
2015,07,02,01,24,15.00
2015,07,02,01,25,15.00
2015,07,02,01,26,14.90
2015,07,02,01,27,14.90
2015,07,02,01,28,14.90
2015,07,02,01,29,14.90
2015,07,02,01,30,14.80
2015,07,02,01,31,14.80
2015,07,02,01,32,14.80
2015,07,02,01,33,14.70
2015,07,02,01,34,14.70
2015,07,02,01,35,14.60
2015,07,02,01,36,14.50
2015,07,02,01,37,14.50
2015,07,02,01,38,14.50
2015,07,02,01,39,14.40
2015,07,02,01,40,14.40
2015,07,02,01,41,14.40
2015,07,02,01,42,14.40
2015,07,02,01,43,14.40
2015,07,02,01,44,14.40
2015,07,02,01,45,14.30
2015,07,02,01,46,14.30
2015,07,02,01,47,14.30
2015,07,02,01,48,14.30
2015,07,02,01,49,14.30
2015,07,02,01,50,14.30
2015,07,02,01,51,14.20
2015,07,02,01,52,14.20
2015,07,02,01,53,14.20
2015,07,02,01,54,14.20
2015,07,02,01,55,14.20
2015,07,02,01,56,14.30
2015,07,02,01,57,14.30
2015,07,02,01,58,14.30
2015,07,02,01,59,14.30
2015,07,02,02,00,14.20
2015,07,02,02,01,14.20
2015,07,02,02,02,14.20
2015,07,02,02,03,14.20
2015,07,02,02,04,14.20
2015,07,02,02,05,14.20
2015,07,02,02,06,14.20
2015,07,02,02,07,14.10
2015,07,02,02,08,14.10
2015,07,02,02,09,14.10
2015,07,02,02,10,14.10
2015,07,02,02,11,14.10
2015,07,02,02,12,14.00
2015,07,02,02,13,14.00
2015,07,02,02,14,14.00
2015,07,02,02,15,14.00
2015,07,02,02,16,13.90
2015,07,02,02,17,13.90
2015,07,02,02,18,13.90
2015,07,02,02,19,13.90
2015,07,02,02,20,13.90
2015,07,02,02,21,13.90
2015,07,02,02,22,13.90
2015,07,02,02,23,13.80
2015,07,02,02,24,13.80
2015,07,02,02,25,13.80
2015,07,02,02,26,13.80
2015,07,02,02,27,13.80
2015,07,02,02,28,13.80
2015,07,02,02,29,13.70
2015,07,02,02,30,13.70
2015,07,02,02,31,13.70
2015,07,02,02,32,13.70
2015,07,02,02,33,13.60
2015,07,02,02,34,13.60
2015,07,02,02,35,13.60
2015,07,02,02,36,13.60
2015,07,02,02,37,13.60
2015,07,02,02,38,13.60
2015,07,02,02,39,13.60
2015,07,02,02,40,13.60
2015,07,02,02,41,13.60
2015,07,02,02,42,13.50
2015,07,02,02,43,13.50
2015,07,02,02,44,13.50
2015,07,02,02,45,13.40
2015,07,02,02,46,13.40
2015,07,02,02,47,13.40
2015,07,02,02,48,13.40
2015,07,02,02,49,13.30
2015,07,02,02,50,13.30
2015,07,02,02,51,13.30
2015,07,02,02,52,13.30
2015,07,02,02,53,13.20
2015,07,02,02,54,13.20
2015,07,02,02,55,13.20
2015,07,02,02,56,13.20
2015,07,02,02,57,13.20
2015,07,02,02,58,13.20
2015,07,02,02,59,13.30
2015,07,02,03,00,13.30
2015,07,02,03,01,13.30
2015,07,02,03,02,13.30
2015,07,02,03,03,13.30
2015,07,02,03,04,13.30
2015,07,02,03,05,13.30
2015,07,02,03,06,13.30
2015,07,02,03,07,13.30
2015,07,02,03,08,13.30
2015,07,02,03,09,13.30
2015,07,02,03,10,13.30
2015,07,02,03,11,13.30
2015,07,02,03,12,13.30
2015,07,02,03,13,13.30
2015,07,02,03,14,13.30
2015,07,02,03,15,13.30
2015,07,02,03,16,13.30
2015,07,02,03,17,13.30
2015,07,02,03,18,13.30
2015,07,02,03,19,13.30
2015,07,02,03,20,13.30
2015,07,02,03,21,13.30
2015,07,02,03,22,13.20
2015,07,02,03,23,13.20
2015,07,02,03,24,13.20
2015,07,02,03,25,13.20
2015,07,02,03,26,13.20
2015,07,02,03,27,13.20
2015,07,02,03,28,13.20
2015,07,02,03,29,13.20
2015,07,02,03,30,13.20
2015,07,02,03,31,13.20
2015,07,02,03,32,13.20
2015,07,02,03,33,13.20
2015,07,02,03,34,13.20
2015,07,02,03,35,13.20
2015,07,02,03,36,13.20
2015,07,02,03,37,13.20
2015,07,02,03,38,13.30
2015,07,02,03,39,13.30
2015,07,02,03,40,13.30
2015,07,02,03,41,13.30
2015,07,02,03,42,13.30
2015,07,02,03,43,13.30
2015,07,02,03,44,13.30
2015,07,02,03,45,13.30
2015,07,02,03,46,13.40
2015,07,02,03,47,13.40
2015,07,02,03,48,13.40
2015,07,02,03,49,13.50
2015,07,02,03,50,13.50
2015,07,02,03,51,13.50
2015,07,02,03,52,13.50
2015,07,02,03,53,13.50
2015,07,02,03,54,13.50
2015,07,02,03,55,13.40
2015,07,02,03,56,13.50
2015,07,02,03,57,13.50
2015,07,02,03,58,13.50
2015,07,02,03,59,13.60
2015,07,02,04,00,13.70
2015,07,02,04,01,13.80
2015,07,02,04,02,13.80
2015,07,02,04,03,13.90
2015,07,02,04,04,13.90
2015,07,02,04,05,14.00
2015,07,02,04,06,14.00
2015,07,02,04,07,14.10
2015,07,02,04,08,14.10
2015,07,02,04,09,14.10
2015,07,02,04,10,14.10
2015,07,02,04,11,14.20
2015,07,02,04,12,14.20
2015,07,02,04,13,14.20
2015,07,02,04,14,14.20
2015,07,02,04,15,14.20
2015,07,02,04,16,14.30
2015,07,02,04,17,14.30
2015,07,02,04,18,14.30
2015,07,02,04,19,14.30
2015,07,02,04,20,14.30
2015,07,02,04,21,14.30
2015,07,02,04,22,14.40
2015,07,02,04,23,14.40
2015,07,02,04,24,14.40
2015,07,02,04,25,14.40
2015,07,02,04,26,14.40
2015,07,02,04,27,14.40
2015,07,02,04,28,14.40
2015,07,02,04,29,14.30
2015,07,02,04,30,14.30
2015,07,02,04,31,14.20
2015,07,02,04,32,14.20
2015,07,02,04,33,14.20
2015,07,02,04,34,14.10
2015,07,02,04,35,14.10
2015,07,02,04,36,14.10
2015,07,02,04,37,14.10
2015,07,02,04,38,14.10
2015,07,02,04,39,14.10
2015,07,02,04,40,14.00
2015,07,02,04,41,14.00
2015,07,02,04,42,14.00
2015,07,02,04,43,14.00
2015,07,02,04,44,14.00
2015,07,02,04,45,13.90
2015,07,02,04,46,13.90
2015,07,02,04,47,13.90
2015,07,02,04,48,13.90
2015,07,02,04,49,13.90
2015,07,02,04,50,13.90
2015,07,02,04,51,13.90
2015,07,02,04,52,14.00
2015,07,02,04,53,14.00
2015,07,02,04,54,14.10
2015,07,02,04,55,14.10
2015,07,02,04,56,14.10
2015,07,02,04,57,14.20
2015,07,02,04,58,14.30
2015,07,02,04,59,14.30
2015,07,02,05,00,14.30
2015,07,02,05,01,14.30
2015,07,02,05,02,14.30
2015,07,02,05,03,14.30
2015,07,02,05,04,14.40
2015,07,02,05,05,14.40
2015,07,02,05,06,14.40
2015,07,02,05,07,14.40
2015,07,02,05,08,14.40
2015,07,02,05,09,14.40
2015,07,02,05,10,14.30
2015,07,02,05,11,14.30
2015,07,02,05,12,14.30
2015,07,02,05,13,14.30
2015,07,02,05,14,14.30
2015,07,02,05,15,14.20
2015,07,02,05,16,14.20
2015,07,02,05,17,14.20
2015,07,02,05,18,14.10
2015,07,02,05,19,14.10
2015,07,02,05,20,14.20
2015,07,02,05,21,14.20
2015,07,02,05,22,14.20
2015,07,02,05,23,14.20
2015,07,02,05,24,14.20
2015,07,02,05,25,14.20
2015,07,02,05,26,14.20
2015,07,02,05,27,14.20
2015,07,02,05,28,14.10
2015,07,02,05,29,14.10
2015,07,02,05,30,14.10
2015,07,02,05,31,14.10
2015,07,02,05,32,14.10
2015,07,02,05,33,14.10
2015,07,02,05,34,14.00
2015,07,02,05,35,14.10
2015,07,02,05,36,14.10
2015,07,02,05,37,14.20
2015,07,02,05,38,14.20
2015,07,02,05,39,14.20
2015,07,02,05,40,14.20
2015,07,02,05,41,14.20
2015,07,02,05,42,14.20
2015,07,02,05,43,14.20
2015,07,02,05,44,14.20
2015,07,02,05,45,14.20
2015,07,02,05,46,14.20
2015,07,02,05,47,14.20
2015,07,02,05,48,14.20
2015,07,02,05,49,14.20
2015,07,02,05,50,14.20
2015,07,02,05,51,14.10
2015,07,02,05,52,14.10
2015,07,02,05,53,14.20
2015,07,02,05,54,14.20
2015,07,02,05,55,14.10
2015,07,02,05,56,14.10
2015,07,02,05,57,14.10
2015,07,02,05,58,14.10
2015,07,02,05,59,14.10
2015,07,02,06,00,14.10
2015,07,02,06,01,14.20
2015,07,02,06,02,14.20
2015,07,02,06,03,14.20
2015,07,02,06,04,14.30
2015,07,02,06,05,14.30
2015,07,02,06,06,14.30
2015,07,02,06,07,14.30
2015,07,02,06,08,14.30
2015,07,02,06,09,14.30
2015,07,02,06,10,14.30
2015,07,02,06,11,14.30
2015,07,02,06,12,14.30
2015,07,02,06,13,14.20
2015,07,02,06,14,14.20
2015,07,02,06,15,14.20
2015,07,02,06,16,14.20
2015,07,02,06,17,14.20
2015,07,02,06,18,14.20
2015,07,02,06,19,14.20
2015,07,02,06,20,14.20
2015,07,02,06,21,14.20
2015,07,02,06,22,14.20
2015,07,02,06,23,14.20
2015,07,02,06,24,14.20
2015,07,02,06,25,14.20
2015,07,02,06,26,14.10
2015,07,02,06,27,14.10
2015,07,02,06,28,14.10
2015,07,02,06,29,14.10
2015,07,02,06,30,14.10
2015,07,02,06,31,14.20
2015,07,02,06,32,14.20
2015,07,02,06,33,14.20
2015,07,02,06,34,14.20
2015,07,02,06,35,14.20
2015,07,02,06,36,14.20
2015,07,02,06,37,14.20
2015,07,02,06,38,14.20
2015,07,02,06,39,14.30
2015,07,02,06,40,14.30
2015,07,02,06,41,14.40
2015,07,02,06,42,14.40
2015,07,02,06,43,14.50
2015,07,02,06,44,14.60
2015,07,02,06,45,14.70
2015,07,02,06,46,14.70
2015,07,02,06,47,14.70
2015,07,02,06,48,14.80
2015,07,02,06,49,14.80
2015,07,02,06,50,14.90
2015,07,02,06,51,15.00
2015,07,02,06,52,15.10
2015,07,02,06,53,15.20
2015,07,02,06,54,15.20
2015,07,02,06,55,15.30
2015,07,02,06,56,15.30
2015,07,02,06,57,15.30
2015,07,02,06,58,15.30
2015,07,02,06,59,15.30
2015,07,02,07,00,15.40
2015,07,02,07,01,15.40
2015,07,02,07,02,15.60
2015,07,02,07,03,15.70
2015,07,02,07,04,15.80
2015,07,02,07,05,15.80
2015,07,02,07,06,15.80
2015,07,02,07,07,15.70
2015,07,02,07,08,15.70
2015,07,02,07,09,15.80
2015,07,02,07,10,15.90
2015,07,02,07,11,16.00
2015,07,02,07,12,16.10
2015,07,02,07,13,16.10
2015,07,02,07,14,16.20
2015,07,02,07,15,16.20
2015,07,02,07,16,16.20
2015,07,02,07,17,16.30
2015,07,02,07,18,16.30
2015,07,02,07,19,16.40
2015,07,02,07,20,16.40
2015,07,02,07,21,16.50
2015,07,02,07,22,16.50
2015,07,02,07,23,16.50
2015,07,02,07,24,16.50
2015,07,02,07,25,16.50
2015,07,02,07,26,16.50
2015,07,02,07,27,16.40
2015,07,02,07,28,16.40
2015,07,02,07,29,16.40
2015,07,02,07,30,16.40
2015,07,02,07,31,16.40
2015,07,02,07,32,16.40
2015,07,02,07,33,16.50
2015,07,02,07,34,16.50
2015,07,02,07,35,16.50
2015,07,02,07,36,16.60
2015,07,02,07,37,16.60
2015,07,02,07,38,16.60
2015,07,02,07,39,16.70
2015,07,02,07,40,16.70
2015,07,02,07,41,16.70
2015,07,02,07,42,16.70
2015,07,02,07,43,16.70
2015,07,02,07,44,16.80
2015,07,02,07,45,16.80
2015,07,02,07,46,16.80
2015,07,02,07,47,16.80
2015,07,02,07,48,16.90
2015,07,02,07,49,16.90
2015,07,02,07,50,16.90
2015,07,02,07,51,16.90
2015,07,02,07,52,16.90
2015,07,02,07,53,16.90
2015,07,02,07,54,17.00
2015,07,02,07,55,17.00
2015,07,02,07,56,16.90
2015,07,02,07,57,17.00
2015,07,02,07,58,17.00
2015,07,02,07,59,17.00
2015,07,02,08,00,17.10
2015,07,02,08,01,17.10
2015,07,02,08,02,17.20
2015,07,02,08,03,17.20
2015,07,02,08,04,17.20
2015,07,02,08,05,17.20
2015,07,02,08,06,17.30
2015,07,02,08,07,17.30
2015,07,02,08,08,17.40
2015,07,02,08,09,17.40
2015,07,02,08,10,17.40
2015,07,02,08,11,17.50
2015,07,02,08,12,17.50
2015,07,02,08,13,17.60
2015,07,02,08,14,17.60
2015,07,02,08,15,17.70
2015,07,02,08,16,17.70
2015,07,02,08,17,17.70
2015,07,02,08,18,17.80
2015,07,02,08,19,17.90
2015,07,02,08,20,18.00
2015,07,02,08,21,18.10
2015,07,02,08,22,18.20
2015,07,02,08,23,18.30
2015,07,02,08,24,18.40
2015,07,02,08,25,18.50
2015,07,02,08,26,18.60
2015,07,02,08,27,18.60
2015,07,02,08,28,18.60
2015,07,02,08,29,18.60
2015,07,02,08,30,18.50
2015,07,02,08,31,18.50
2015,07,02,08,32,18.40
2015,07,02,08,33,18.30
2015,07,02,08,34,18.30
2015,07,02,08,35,18.30
2015,07,02,08,36,18.30
2015,07,02,08,37,18.40
2015,07,02,08,38,18.50
2015,07,02,08,39,18.60
2015,07,02,08,40,18.60
2015,07,02,08,41,18.70
2015,07,02,08,42,18.80
2015,07,02,08,43,18.90
2015,07,02,08,44,18.90
2015,07,02,08,45,19.00
2015,07,02,08,46,19.10
2015,07,02,08,47,19.20
2015,07,02,08,48,19.30
2015,07,02,08,49,19.40
2015,07,02,08,50,19.50
2015,07,02,08,51,19.60
2015,07,02,08,52,19.70
2015,07,02,08,53,19.80
2015,07,02,08,54,19.90
2015,07,02,08,55,19.90
2015,07,02,08,56,19.90
2015,07,02,08,57,19.90
2015,07,02,08,58,19.90
2015,07,02,08,59,19.90
2015,07,02,09,00,19.90
2015,07,02,09,01,19.90
2015,07,02,09,02,19.90
2015,07,02,09,03,20.00
2015,07,02,09,04,20.00
2015,07,02,09,05,20.00
2015,07,02,09,06,20.00
2015,07,02,09,07,20.00
2015,07,02,09,08,19.90
2015,07,02,09,09,19.80
2015,07,02,09,10,19.70
2015,07,02,09,11,19.70
2015,07,02,09,12,19.60
2015,07,02,09,13,19.60
2015,07,02,09,14,19.50
2015,07,02,09,15,19.40
2015,07,02,09,16,19.30
2015,07,02,09,17,19.30
2015,07,02,09,18,19.30
2015,07,02,09,19,19.40
2015,07,02,09,20,19.50
2015,07,02,09,21,19.60
2015,07,02,09,22,19.70
2015,07,02,09,23,19.80
2015,07,02,09,24,20.00
2015,07,02,09,25,20.10
2015,07,02,09,26,20.20
2015,07,02,09,27,20.20
2015,07,02,09,28,20.30
2015,07,02,09,29,20.40
2015,07,02,09,30,20.50
2015,07,02,09,31,20.60
2015,07,02,09,32,20.70
2015,07,02,09,33,20.70
2015,07,02,09,34,20.70
2015,07,02,09,35,20.60
2015,07,02,09,36,20.50
2015,07,02,09,37,20.40
2015,07,02,09,38,20.20
2015,07,02,09,39,20.10
2015,07,02,09,40,20.00
2015,07,02,09,41,19.90
2015,07,02,09,42,19.80
2015,07,02,09,43,19.80
2015,07,02,09,44,19.70
2015,07,02,09,45,19.50
2015,07,02,09,46,19.30
2015,07,02,09,47,19.20
2015,07,02,09,48,19.10
2015,07,02,09,49,19.10
2015,07,02,09,50,19.10
2015,07,02,09,51,19.10
2015,07,02,09,52,19.20
2015,07,02,09,53,19.20
2015,07,02,09,54,19.30
2015,07,02,09,55,19.40
2015,07,02,09,56,19.60
2015,07,02,09,57,19.70
2015,07,02,09,58,19.90
2015,07,02,09,59,20.10
2015,07,02,10,00,20.20
2015,07,02,10,01,20.40
2015,07,02,10,02,20.40
2015,07,02,10,03,20.50
2015,07,02,10,04,20.60
2015,07,02,10,05,20.70
2015,07,02,10,06,20.80
2015,07,02,10,07,20.90
2015,07,02,10,08,21.10
2015,07,02,10,09,21.40
2015,07,02,10,10,21.60
2015,07,02,10,11,21.90
2015,07,02,10,12,22.10
2015,07,02,10,13,22.30
2015,07,02,10,14,22.60
2015,07,02,10,15,22.70
2015,07,02,10,16,22.80
2015,07,02,10,17,23.00
2015,07,02,10,18,23.10
2015,07,02,10,19,23.20
2015,07,02,10,20,23.20
2015,07,02,10,21,23.30
2015,07,02,10,22,23.40
2015,07,02,10,23,23.40
2015,07,02,10,24,23.60
2015,07,02,10,25,23.60
2015,07,02,10,26,23.80
2015,07,02,10,27,23.90
2015,07,02,10,28,24.00
2015,07,02,10,29,24.10
2015,07,02,10,30,24.20
2015,07,02,10,31,24.30
2015,07,02,10,32,24.40
2015,07,02,10,33,24.40
2015,07,02,10,34,24.50
2015,07,02,10,35,24.60
2015,07,02,10,36,24.70
2015,07,02,10,37,24.80
2015,07,02,10,38,24.90
2015,07,02,10,39,25.00
2015,07,02,10,40,25.10
2015,07,02,10,41,25.10
2015,07,02,10,42,25.10
2015,07,02,10,43,25.20
2015,07,02,10,44,25.30
2015,07,02,10,45,25.30
2015,07,02,10,46,25.40
2015,07,02,10,47,25.40
2015,07,02,10,48,25.40
2015,07,02,10,49,25.40
2015,07,02,10,50,25.40
2015,07,02,10,51,25.40
2015,07,02,10,52,25.40
2015,07,02,10,53,25.40
2015,07,02,10,54,25.30
2015,07,02,10,55,25.30
2015,07,02,10,56,25.30
2015,07,02,10,57,25.30
2015,07,02,10,58,25.20
2015,07,02,10,59,25.20
2015,07,02,11,00,25.30
2015,07,02,11,01,25.30
2015,07,02,11,02,25.30
2015,07,02,11,03,25.30
2015,07,02,11,04,25.30
2015,07,02,11,05,25.20
2015,07,02,11,06,25.20
2015,07,02,11,07,25.00
2015,07,02,11,08,25.00
2015,07,02,11,09,24.80
2015,07,02,11,10,24.70
2015,07,02,11,11,24.50
2015,07,02,11,12,24.20
2015,07,02,11,13,24.10
2015,07,02,11,14,24.00
2015,07,02,11,15,23.90
2015,07,02,11,16,23.90
2015,07,02,11,17,23.90
2015,07,02,11,18,24.00
2015,07,02,11,19,24.10
2015,07,02,11,20,24.30
2015,07,02,11,21,24.40
2015,07,02,11,22,24.50
2015,07,02,11,23,24.60
2015,07,02,11,24,24.60
2015,07,02,11,25,24.70
2015,07,02,11,26,24.70
2015,07,02,11,27,24.70
2015,07,02,11,28,24.70
2015,07,02,11,29,24.70
2015,07,02,11,30,24.70
2015,07,02,11,31,24.80
2015,07,02,11,32,24.80
2015,07,02,11,33,24.80
2015,07,02,11,34,24.70
2015,07,02,11,35,24.70
2015,07,02,11,36,24.70
2015,07,02,11,37,24.80
2015,07,02,11,38,24.70
2015,07,02,11,39,24.70
2015,07,02,11,40,24.70
2015,07,02,11,41,24.70
2015,07,02,11,42,24.70
2015,07,02,11,43,24.70
2015,07,02,11,44,24.70
2015,07,02,11,45,24.70
2015,07,02,11,46,24.80
2015,07,02,11,47,24.80
2015,07,02,11,48,24.90
2015,07,02,11,49,24.90
2015,07,02,11,50,25.00
2015,07,02,11,51,25.10
2015,07,02,11,52,25.10
2015,07,02,11,53,25.20
2015,07,02,11,54,25.20
2015,07,02,11,55,25.20
2015,07,02,11,56,25.10
2015,07,02,11,57,25.10
2015,07,02,11,58,25.00
2015,07,02,11,59,24.90
2015,07,02,12,00,24.90
2015,07,02,12,01,24.90
2015,07,02,12,02,24.80
2015,07,02,12,03,24.80
2015,07,02,12,04,24.80
2015,07,02,12,05,24.80
2015,07,02,12,06,24.70
2015,07,02,12,07,24.60
2015,07,02,12,08,24.60
2015,07,02,12,09,24.50
2015,07,02,12,10,24.40
2015,07,02,12,11,24.30
2015,07,02,12,12,24.30
2015,07,02,12,13,24.30
2015,07,02,12,14,24.30
2015,07,02,12,15,24.30
2015,07,02,12,16,24.40
2015,07,02,12,17,24.50
2015,07,02,12,18,24.60
2015,07,02,12,19,24.70
2015,07,02,12,20,24.80
2015,07,02,12,21,24.80
2015,07,02,12,22,24.90
2015,07,02,12,23,24.90
2015,07,02,12,24,25.00
2015,07,02,12,25,25.00
2015,07,02,12,26,25.10
2015,07,02,12,27,25.10
2015,07,02,12,28,25.20
2015,07,02,12,29,25.20
2015,07,02,12,30,25.20
2015,07,02,12,31,25.30
2015,07,02,12,32,25.20
2015,07,02,12,33,25.10
2015,07,02,12,34,25.10
2015,07,02,12,35,25.10
2015,07,02,12,36,25.10
2015,07,02,12,37,25.00
2015,07,02,12,38,24.90
2015,07,02,12,39,24.80
2015,07,02,12,40,24.70
2015,07,02,12,41,24.60
2015,07,02,12,42,24.50
2015,07,02,12,43,24.60
2015,07,02,12,44,24.50
2015,07,02,12,45,24.50
2015,07,02,12,46,24.60
2015,07,02,12,47,24.60
2015,07,02,12,48,24.70
2015,07,02,12,49,24.70
2015,07,02,12,50,24.80
2015,07,02,12,51,24.90
2015,07,02,12,52,25.00
2015,07,02,12,53,25.00
2015,07,02,12,54,25.00
2015,07,02,12,55,25.10
2015,07,02,12,56,25.20
2015,07,02,12,57,25.30
2015,07,02,12,58,25.30
2015,07,02,12,59,25.30
2015,07,02,13,00,25.30
2015,07,02,13,01,25.30
2015,07,02,13,02,25.30
2015,07,02,13,03,25.30
2015,07,02,13,04,25.30
2015,07,02,13,05,25.20
2015,07,02,13,06,25.10
2015,07,02,13,07,25.00
2015,07,02,13,08,24.90
2015,07,02,13,09,24.90
2015,07,02,13,10,24.80
2015,07,02,13,11,24.60
2015,07,02,13,12,24.50
2015,07,02,13,13,24.30
2015,07,02,13,14,24.20
2015,07,02,13,15,24.10
2015,07,02,13,16,23.90
2015,07,02,13,17,23.80
2015,07,02,13,18,23.70
2015,07,02,13,19,23.70
2015,07,02,13,20,23.70
2015,07,02,13,21,23.70
2015,07,02,13,22,23.70
2015,07,02,13,23,23.70
2015,07,02,13,24,23.80
2015,07,02,13,25,23.80
2015,07,02,13,26,23.80
2015,07,02,13,27,23.80
2015,07,02,13,28,23.90
2015,07,02,13,29,23.90
2015,07,02,13,30,24.00
2015,07,02,13,31,24.10
2015,07,02,13,32,24.30
2015,07,02,13,33,24.40
2015,07,02,13,34,24.60
2015,07,02,13,35,24.80
2015,07,02,13,36,24.90
2015,07,02,13,37,25.00
2015,07,02,13,38,25.10
2015,07,02,13,39,25.20
2015,07,02,13,40,25.20
2015,07,02,13,41,25.30
2015,07,02,13,42,25.20
2015,07,02,13,43,25.20
2015,07,02,13,44,25.10
2015,07,02,13,45,25.00
2015,07,02,13,46,24.80
2015,07,02,13,47,24.60
2015,07,02,13,48,24.40
2015,07,02,13,49,24.20
2015,07,02,13,50,24.00
2015,07,02,13,51,23.90
2015,07,02,13,52,23.70
2015,07,02,13,53,23.60
2015,07,02,13,54,23.50
2015,07,02,13,55,23.30
2015,07,02,13,56,23.10
2015,07,02,13,57,23.00
2015,07,02,13,58,22.90
2015,07,02,13,59,22.90
2015,07,02,14,00,22.90
2015,07,02,14,01,22.90
2015,07,02,14,02,22.90
2015,07,02,14,03,22.90
2015,07,02,14,04,22.90
2015,07,02,14,05,22.80
2015,07,02,14,06,22.70
2015,07,02,14,07,22.70
2015,07,02,14,08,22.70
2015,07,02,14,09,22.70
2015,07,02,14,10,22.80
2015,07,02,14,11,22.90
2015,07,02,14,12,23.00
2015,07,02,14,13,23.10
2015,07,02,14,14,23.20
2015,07,02,14,15,23.30
2015,07,02,14,16,23.40
2015,07,02,14,17,23.40
2015,07,02,14,18,23.40
2015,07,02,14,19,23.40
2015,07,02,14,20,23.50
2015,07,02,14,21,23.60
2015,07,02,14,22,23.70
2015,07,02,14,23,23.80
2015,07,02,14,24,23.80
2015,07,02,14,25,23.90
2015,07,02,14,26,24.00
2015,07,02,14,27,24.10
2015,07,02,14,28,24.20
2015,07,02,14,29,24.30
2015,07,02,14,30,24.50
2015,07,02,14,31,24.60
2015,07,02,14,32,24.70
2015,07,02,14,33,24.70
2015,07,02,14,34,24.60
2015,07,02,14,35,24.50
2015,07,02,14,36,24.40
2015,07,02,14,37,24.40
2015,07,02,14,38,24.40
2015,07,02,14,39,24.40
2015,07,02,14,40,24.50
2015,07,02,14,41,24.50
2015,07,02,14,42,24.50
2015,07,02,14,43,24.50
2015,07,02,14,44,24.40
2015,07,02,14,45,24.40
2015,07,02,14,46,24.50
2015,07,02,14,47,24.50
2015,07,02,14,48,24.60
2015,07,02,14,49,24.60
2015,07,02,14,50,24.60
2015,07,02,14,51,24.60
2015,07,02,14,52,24.70
2015,07,02,14,53,24.70
2015,07,02,14,54,24.70
2015,07,02,14,55,24.80
2015,07,02,14,56,24.80
2015,07,02,14,57,25.00
2015,07,02,14,58,25.10
2015,07,02,14,59,25.30
2015,07,02,15,00,25.30
2015,07,02,15,01,25.30
2015,07,02,15,02,25.40
2015,07,02,15,03,25.40
2015,07,02,15,04,25.50
2015,07,02,15,05,25.70
2015,07,02,15,06,25.80
2015,07,02,15,07,25.90
2015,07,02,15,08,26.00
2015,07,02,15,09,26.00
2015,07,02,15,10,26.10
2015,07,02,15,11,26.10
2015,07,02,15,12,26.10
2015,07,02,15,13,26.20
2015,07,02,15,14,26.20
2015,07,02,15,15,26.30
2015,07,02,15,16,26.30
2015,07,02,15,17,26.50
2015,07,02,15,18,26.60
2015,07,02,15,19,26.70
2015,07,02,15,20,26.90
2015,07,02,15,21,27.10
2015,07,02,15,22,27.30
2015,07,02,15,23,27.40
2015,07,02,15,24,27.60
2015,07,02,15,25,27.70
2015,07,02,15,26,27.80
2015,07,02,15,27,28.00
2015,07,02,15,28,28.10
2015,07,02,15,29,28.10
2015,07,02,15,30,28.00
2015,07,02,15,31,27.90
2015,07,02,15,32,27.90
2015,07,02,15,33,27.80
2015,07,02,15,34,27.70
2015,07,02,15,35,27.70
2015,07,02,15,36,27.70
2015,07,02,15,37,27.70
2015,07,02,15,38,27.70
2015,07,02,15,39,27.60
2015,07,02,15,40,27.60
2015,07,02,15,41,27.50
2015,07,02,15,42,27.50
2015,07,02,15,43,27.40
2015,07,02,15,44,27.50
2015,07,02,15,45,27.50
2015,07,02,15,46,27.60
2015,07,02,15,47,27.70
2015,07,02,15,48,27.80
2015,07,02,15,49,27.90
2015,07,02,15,50,28.00
2015,07,02,15,51,28.10
2015,07,02,15,52,28.20
2015,07,02,15,53,28.30
2015,07,02,15,54,28.40
2015,07,02,15,55,28.50
2015,07,02,15,56,28.40
2015,07,02,15,57,28.40
2015,07,02,15,58,28.40
2015,07,02,15,59,28.50
2015,07,02,16,00,28.50
2015,07,02,16,01,28.60
2015,07,02,16,02,28.60
2015,07,02,16,03,28.70
2015,07,02,16,04,28.70
2015,07,02,16,05,28.70
2015,07,02,16,06,28.70
2015,07,02,16,07,28.70
2015,07,02,16,08,28.70
2015,07,02,16,09,28.70
2015,07,02,16,10,28.60
2015,07,02,16,11,28.70
2015,07,02,16,12,28.60
2015,07,02,16,13,28.60
2015,07,02,16,14,28.70
2015,07,02,16,15,28.70
2015,07,02,16,16,28.70
2015,07,02,16,17,28.60
2015,07,02,16,18,28.60
2015,07,02,16,19,28.60
2015,07,02,16,20,28.70
2015,07,02,16,21,28.80
2015,07,02,16,22,28.80
2015,07,02,16,23,28.80
2015,07,02,16,24,28.70
2015,07,02,16,25,28.70
2015,07,02,16,26,28.70
2015,07,02,16,27,28.80
2015,07,02,16,28,28.80
2015,07,02,16,29,28.80
2015,07,02,16,30,28.80
2015,07,02,16,31,28.90
2015,07,02,16,32,28.90
2015,07,02,16,33,28.90
2015,07,02,16,34,28.80
2015,07,02,16,35,28.60
2015,07,02,16,36,28.40
2015,07,02,16,37,28.10
2015,07,02,16,38,28.00
2015,07,02,16,39,27.80
2015,07,02,16,40,27.70
2015,07,02,16,41,27.60
2015,07,02,16,42,27.40
2015,07,02,16,43,27.30
2015,07,02,16,44,27.30
2015,07,02,16,45,27.20
2015,07,02,16,46,27.00
2015,07,02,16,47,26.90
2015,07,02,16,48,26.70
2015,07,02,16,49,26.70
2015,07,02,16,50,26.60
2015,07,02,16,51,26.50
2015,07,02,16,52,26.50
2015,07,02,16,53,26.60
2015,07,02,16,54,26.60
2015,07,02,16,55,26.60
2015,07,02,16,56,26.60
2015,07,02,16,57,26.60
2015,07,02,16,58,26.60
2015,07,02,16,59,26.60
2015,07,02,17,00,26.60
2015,07,02,17,01,26.50
2015,07,02,17,02,26.40
2015,07,02,17,03,26.40
2015,07,02,17,04,26.40
2015,07,02,17,05,26.40
2015,07,02,17,06,26.30
2015,07,02,17,07,26.30
2015,07,02,17,08,26.30
2015,07,02,17,09,26.20
2015,07,02,17,10,26.10
2015,07,02,17,11,26.00
2015,07,02,17,12,25.80
2015,07,02,17,13,25.60
2015,07,02,17,14,25.30
2015,07,02,17,15,25.10
2015,07,02,17,16,24.90
2015,07,02,17,17,24.80
2015,07,02,17,18,24.80
2015,07,02,17,19,24.70
2015,07,02,17,20,24.60
2015,07,02,17,21,24.60
2015,07,02,17,22,24.40
2015,07,02,17,23,24.30